Location: Unspecified
(0.0000°N, 0.0000°E)
Time: 15:07:23
(UTC+00:00)

deb Delta 126 - Pass Details

Date: 14 February 2026
Orbit: 1458 x 1580 km, 101.9° (Epoch: 6 March)

Event Time Altitude Azimuth Distance (km) Brightness Sun altitude
Rises 02:46:25 0° 32° (NNE) 4,747 ? -50.1°
Reaches altitude 10° 02:49:29 10° 39° (NE) 3,770 ? -49.4°
Enters shadow 02:53:37 28° 57° (ENE) 2,630 ? -48.4°
Exits shadow 02:55:45 38° 77° (ENE) 2,241 ? -47.9°
Maximum altitude 02:57:45 43° 107° (ESE) 2,105 ? -47.4°
Drops below altitude 10° 03:05:58 10° 174° (S) 3,765 ? -45.5°
Sets 03:09:00 0° 181° (S) 4,740 ? -44.8°
